SILO ALERT LOG
| Silo ID | Alert Type | Alert Message | Silo Type | Points | Depth (mm) | Strength | Temperature (°C) | Humidity (%) | Height (mm) | Volume (㎥) | Weight (t) | Flag | Time |
|---|---|---|---|---|---|---|---|---|---|---|---|---|---|
| WJWJR05 | Humidity | 습도센서 측정값이 80% 초과 | 평 | 62 | 7660 | 2605 | 26.7 | 80.1 | 59 | 6.786 | 4.29 | 0 | 2026-07-27 05:25:46.000 |
| WJWJR01 | Humidity | 습도센서 측정값이 80% 초과 | 평 | 77 | 7660 | 1060 | 26.1 | 83.6 | -20 | -2.262 | 0 | 0 | 2026-07-27 01:26:01.000 |
| WJWJR01 | Humidity | 습도센서 측정값이 80% 초과 | 평 | 83 | 7690 | 1051 | 27.9 | 88.1 | -50 | -5.655 | 0 | 0 | 2026-07-26 09:26:02.000 |
| WJWJR05 | Humidity | 습도센서 측정값이 80% 초과 | 평 | 57 | 7640 | 2647 | 28.2 | 85.7 | 80 | 9.048 | 5.72 | 0 | 2026-07-26 09:25:46.000 |
| WJWJR01 | Humidity | 습도센서 측정값이 80% 초과 | 평 | 77 | 7680 | 1054 | 25.2 | 90.8 | -40 | -4.524 | 0 | 0 | 2026-07-26 05:26:08.000 |
| WJWJR05 | Humidity | 습도센서 측정값이 80% 초과 | 평 | 58 | 7660 | 2626 | 27 | 81.6 | 59 | 6.786 | 4.29 | 0 | 2026-07-26 05:25:47.000 |
| WJWJR01 | Humidity | 습도센서 측정값이 80% 초과 | 평 | 83 | 7710 | 1044 | 26.3 | 88 | -70 | -7.917 | 0 | 0 | 2026-07-26 01:25:59.000 |
| WJWJR05 | Humidity | 습도센서 측정값이 80% 초과 | 평 | 61 | 7680 | 2648 | 28 | 80.8 | 40 | 4.524 | 2.86 | 0 | 2026-07-26 01:25:46.000 |
| WJWJR01 | Humidity | 습도센서 측정값이 80% 초과 | 평 | 76 | 7690 | 1051 | 29 | 80.6 | -50 | -5.655 | 0 | 0 | 2026-07-25 21:25:56.000 |
| WJWJR01 | Humidity | 습도센서 측정값이 80% 초과 | 평 | 76 | 7710 | 1045 | 27.1 | 94.1 | -70 | -7.917 | 0 | 0 | 2026-07-25 09:25:56.000 |
| WJWJR05 | Humidity | 습도센서 측정값이 80% 초과 | 평 | 62 | 7610 | 2631 | 27.8 | 85.4 | 109 | 12.441 | 7.865 | 0 | 2026-07-25 09:25:48.000 |
| WJWJR01 | Humidity | 습도센서 측정값이 80% 초과 | 평 | 77 | 7650 | 1081 | 24.9 | 92.1 | -10 | -1.131 | 0 | 0 | 2026-07-25 05:25:57.000 |
| WJWJR05 | Humidity | 습도센서 측정값이 80% 초과 | 평 | 61 | 7680 | 2626 | 26.8 | 81.9 | 40 | 4.524 | 2.86 | 0 | 2026-07-25 05:25:49.000 |
| WJWJR01 | Humidity | 습도센서 측정값이 80% 초과 | 평 | 77 | 7690 | 1058 | 25.7 | 90 | -50 | -5.655 | 0 | 0 | 2026-07-25 01:26:02.000 |
| WJWJR05 | Humidity | 습도센서 측정값이 80% 초과 | 평 | 60 | 7840 | 2632 | 27.5 | 81.5 | -120 | -13.572 | 0 | 0 | 2026-07-25 01:25:46.000 |
| WJWJR01 | Humidity | 습도센서 측정값이 80% 초과 | 평 | 82 | 7690 | 1053 | 28.4 | 83.4 | -50 | -5.655 | 0 | 0 | 2026-07-24 21:25:56.000 |
| WJWJR01 | Humidity | 습도센서 측정값이 80% 초과 | 평 | 76 | 7690 | 1049 | 30.9 | 85.6 | -50 | -5.655 | 0 | 0 | 2026-07-24 13:26:01.000 |
| WJWJR01 | Humidity | 습도센서 측정값이 80% 초과 | 평 | 3372 | 7529 | 1007 | 80 | 100 | 5526 | 6684 | 7427 | 15 | 2026-07-24 11:59:01.000 |
| WJWJR01 | Humidity | 습도센서 측정값이 80% 초과 | 평 | 2840 | 4045 | 5371 | 80 | 100 | 8418 | 4939 | 8343 | 15 | 2026-07-24 11:58:54.000 |
| WJWJR05 | Humidity | 습도센서 측정값이 80% 초과 | 평 | 2832 | 7354 | 3843 | 80 | 100 | 3459 | 2591 | 8609 | 15 | 2026-07-24 11:58:53.000 |
[첫 페이지] [11] [12] [13] [14] 15 [16] [17] [18] [19] [마지막 페이지]